This demonstration page uses our WeatherBlox Daily Observations layout. Learn more.

Left ArrowRight Arrow

Hourly Observations for June 2, 2020

Temp ( °F °C ) Dew Point ( °F °C ) Humidity (%) Winds ( mph kmh ) Pressure ( in mb ) Visibility ( mi km ) Precip ( " mm )
12:53 am 00:53 Clear 56 13.3 37 2.8 49 49 WSW 10 17 29.98 1015 10 16 N/A
1:53 am 01:53 Clear 53 11.7 36 2.2 52 52 WSW 5 7 30.00 1016 10 16 N/A
2:53 am 02:53 Clear 49 9.4 37 2.8 64 64 SW 8 13 30.01 1016 10 16 N/A
3:53 am 03:53 Clear 49 9.4 37 2.8 64 64 SW 12 19 30.04 1017 10 16 N/A
4:53 am 04:53 Clear 49 9.4 37 2.8 64 64 SW 12 19 30.05 1018 10 16 N/A
5:53 am 05:53 Sunny 49 9.4 37 2.8 64 64 SW 15 24 30.07 1018 10 16 N/A
6:53 am 06:53 Sunny 53 11.7 39 3.9 59 59 SW 13 20 30.08 1019 10 16 N/A
7:53 am 07:53 Sunny 58 14.4 38 3.3 48 48 SW 14 22 30.09 1019 10 16 N/A
8:53 am 08:53 Sunny 61 16.1 39 3.9 44 44 SW 10 17 30.09 1019 10 16 N/A
9:53 am 09:53 Sunny 65 18.3 40 4.4 40 40 SW 10 17 30.09 1019 10 16 N/A
10:53 am 10:53 Sunny 70 21.1 34 1.1 27 27 W 15 24 30.06 1018 10 16 N/A
11:53 am 11:53 Sunny 71 21.7 34 1.1 26 26 W 13 20 30.05 1018 10 16 N/A
12:53 pm 12:53 Mostly Sunny 73 22.8 35 1.7 25 25 WSW 12 19 30.03 1017 10 16 N/A
1:53 pm 13:53 Sunny 74 23.3 33 0.6 22 22 WSW 16 26 30.02 1017 10 16 N/A
2:53 pm 14:53 Sunny 76 24.4 33 0.6 21 21 WSW 17 28 29.99 1016 10 16 N/A
3:53 pm 15:53 Sunny 77 25 32 undefined 19 19 WSW 17 28 29.97 1015 10 16 N/A
4:53 pm 16:53 Sunny 77 25 32 undefined 19 19 WSW 9 15 29.95 1014 10 16 N/A
5:53 pm 17:53 Sunny 78 25.6 30 -1.1 17 17 SSW 17 28 29.93 1013 10 16 N/A
6:53 pm 18:53 Sunny 76 24.4 31 -0.6 19 19 WSW 8 13 29.90 1013 10 16 N/A
7:53 pm 19:53 Sunny 71 21.7 39 3.9 31 31 S 7 11 29.88 1012 10 16 N/A
8:53 pm 20:53 Sunny 63 17.2 41 5 45 45 S 10 17 29.87 1011 10 16 N/A
9:53 pm 21:53 Clear 62 16.7 37 2.8 40 40 S 9 15 29.86 1011 10 16 N/A
10:53 pm 22:53 Clear 61 16.1 37 2.8 41 41 SW 10 17 29.85 1011 10 16 N/A
11:53 pm 23:53 Clear 58 14.4 40 4.4 51 51 N N/A 29.84 1011 10 16 N/A

Powered by AerisWeather